Regional Weather Roundup
Issued by NWS

Home | Current Version | Previous Version | Text Only | Print | Product List | Glossary Off
Versions: 1 2 3 4 5 6 7 8 9 10 11 12 13 14 15 16 17 18 19 20 21 22 23 24 25 26 27 28 29 30 31 32 33 34 35 36 37 38 39 40 41 42 43 44 45 46 47 48 49 50

000
ASUS45 KSLC 250510
RWRUT

UTAH REGIONAL WEATHER ROUNDUP
NATIONAL WEATHER SERVICE SALT LAKE CITY UT
1100 PM MDT FRI APR 24 2015

UTZ001>011-023>025-250600-

NORTHERN UTAH

CITY           SKY/WX    TMP DP  RH WIND       PRES   REMARKS
BRIGHAM CITY   CLOUDY    47  43  86 S5        29.78R
HILL AFB       LGT RAIN  45  45 100 SW17G24   29.79R
LOGAN          LGT RAIN  46  41  82 SE6       29.75S
OGDEN          RAIN      46  44  93 W6        29.78R FOG
PROVO AIRPORT  CLOUDY    46  39  76 W6        29.82R
SALT LAKE CITY LGT RAIN  48  45  89 NW5       29.79R
VERNAL         CLOUDY    55  31  39 W9G18     29.74R
WENDOVER       PTCLDY    46  28  49 NW10      29.82R
HEBER CITY     MIX PCPN  43  39  87 CALM      29.78S
WEST JORDAN    CLOUDY    46  46 100 N8        29.79R

$$

UTZ012>022-026-027-250600-

SOUTHERN/CENTRAL UTAH

CITY           SKY/WX    TMP DP  RH WIND       PRES   REMARKS
BLANDING       PTCLDY    50  27  41 W6        29.93S
BRYCE CANYON   LGT RAIN  38  36  92 W10       29.93S WCI  31
CEDAR CITY     LGT RAIN  45  42  89 NW13      29.87R
DELTA          CLOUDY    47  45  91 CALM      29.82R
HANKSVILLE     CLOUDY    59  30  33 SW12      29.77S
MILFORD        CLOUDY    48  30  49 S14G22    29.84R
MOAB/CYNLANDS  CLOUDY    56  30  37 SW6       29.73S
PRICE          CLOUDY    52  32  46 NW8       29.77S
ST GEORGE      CLOUDY    57  48  72 NW7       29.84R
KANAB          CLOUDY    52  37  58 NW12      29.91R

$$

REGIONAL REPORTS     COLORADO/ARIZONA

CITY           SKY/WX    TMP DP  RH WIND       PRES   REMARKS
CRAIG, CO      CLOUDY    45  33  63 CALM      29.77S
GRAND JUNCTION MOCLDY    53  32  44 SE14      29.78R
RIFLE          PTCLDY    43  32  65 CALM      29.81R
MONTROSE       CLEAR     44  34  67 E3        29.85S
CORTEZ         CLOUDY    52  34  50 S12G22    29.90R
PAGE, AZ       PTCLDY    62  33  33 SW8G17    29.82R
GRAND CANYON   CLOUDY    45  34  65 SW13      29.98R
KINGMAN        MOCLDY    60  37  42 S14       29.88R
FLAGSTAFF      LGT RAIN  41  39  93 W12       30.00S

$$

REGIONAL REPORTS    NEVADA/IDAHO/WYOMING

CITY           SKY/WX    TMP DP  RH WIND       PRES   REMARKS
LAS VEGAS, NV  CLOUDY    66  38  35 S17G25    29.74R
ELY            PTCLDY    35  34  96 S8        29.86R WCI  29
ELKO           CLOUDY    41  36  82 W6        29.84S
POCATELLO, ID  CLOUDY    46  37  71 SW17      29.76R
BURLEY         CLOUDY    45  32  60 SW16      29.76R
EVANSTON, WY   LGT RAIN  38  36  92 SW17G24   29.77S WCI  28
ROCK SPRINGS   MOCLDY    39  34  82 S7        29.77F WCI  34
KEMMERER       CLOUDY    37  36  93 SW3       29.77S

$$



USA.gov is the U.S. government's official web portal to all federal, state and local government web resources and services.